Location: Amherst
(42.5000°N, 72.5000°W)
Time: 05:18:45
(UTC-04:00)

ISS - Pass Details

Date: 25 May 2018
Orbit: 402 x 407 km, 51.6° (Epoch: 27 May)

Event Time Altitude Azimuth Distance (km) Brightness Sun altitude
Rises 00:40:43 0° 306° (NW) 2,320 0.5 -26.5°
Reaches altitude 10° 00:43:08 10° 323° (NW) 1,459 -0.4 -26.6°
Maximum altitude 00:45:43 21° 15° (NNE) 961 -1.3 -26.6°
Enters shadow 00:46:01 21° 23° (NNE) 969 -1.3 -26.6°
